Location: Cluj-Napoca
(46.7712°N, 23.6236°E)
Time: 12:40:30
(UTC+02:00)

ISS - Pass Details

Date: 24 January 2020
Orbit: 415 x 423 km, 51.6° (Epoch: 27 February)

Event Time Altitude Azimuth Distance (km) Brightness Sun altitude
Rises 17:44:17 0° 215° (SW) 2,369 1.2 -5.2°
Reaches altitude 10° 17:46:31 10° 205° (SSW) 1,507 -0.2 -5.6°
Maximum altitude 17:49:32 30° 142° (SE) 779 -2.5 -6.1°
Drops below altitude 10° 17:52:34 10° 79° (ENE) 1,512 -1.6 -6.5°
Enters shadow 17:52:54 - 76° (ENE) 1,634 -1.4 -6.6°
